EHI
0 0 0 0 0 0 0 0 0 0 0 0 0 0 0 0 0 0 0 0 0 0 0 0 0 0 0 0 0 0 0 0 0 0 0 0 0 0
0 0 0 0 0 0 0 0 0 0 0 0 0 0 0 0 0 0 0 0 0 0 0 0 0 0 0 0 0 0 0 0 0 0 0 0 0 0
0 0 0 0 0 0 0 0 0 0 0 0 0 0 0 0 0 0 0 0 0 0 0 0 0 0 0 0 0 0 0 0 0 0 0 0 0 0
0 0 0 0 0 0 0 0 0 0 0 0 0 0 0 0 0 0 0 0 0 0 0 0 0 0 0 0 0 0 0 0 0 0 0 0 0 0
0 0 0 0 0 0 0 0 0 0 0 0 0 0 0 0 0 0 0 0 0 0 0 0 0 0 0 0 0 0 0 0 0 0 0 0 0 0
0 0 0 0 0 0 0 0 0 0 0 0 0 0 0 0 0 0 0 0 0 0 0 0 0 0 0 0 0 0 0 0 0 0 0 0 0 0
0 0 0 0 0 0 0 0 0 0 0 0 0 0 0 0 0 0 0 0 0 0 0 0 0 0 0 0 0 0 0 0 0 0 0 0 0 0
0 0 0 0 0 0 0 0 0 0 0 0 0 0 0 0 0 0 0 0 0 0 0 0 0 0 0 0 0 0 0 0 0 0 0 0 0 0
0 0 0 0 0 0 0 0 0 0 0 0 0 0 0 0 0 0 0 0 0 0 0 0 0 0 0 0 0 0 0 0 0 0 0 0 0 0
0 0 0 0 0 0 0 0 0 0 0 0 0 0 0 0 0 0 0 0 0 0 0 0 0 0 0 0 0 0 0 0 0 0 0 0 0 0
0 0 0 0 0 0 0 0 0 0 0 0 0 0 0 0 0 0 0 0 0 0 0 0 0 0 0 0 0 0 0 0 0 0 0 0 0 0
0 0 0 0 0 0 0 0 0 0 0 0 0 0 0 0 0 0 0 0 0 0 0 0 0 0 0 0 0 0 0 0 0 0 0 0 0 0
0 0 0 0 0 0 0 0 0 0 0 0 0 0 0 0 0 0 0 0 0 0 0 0 0 0 0 0 0 0 0 0 0 0 0 0 0 0
0 0 0 0 0 0 0 0 0 0 0 0 0 0 0 0 0 0 0 0 0 0 0 0 0 0 0 0 0 0 0 0 0 0 0 0 0 0
0 0 0 0 0 0 0 0 0 0 0 0 0 0 0 0 0 0 0 0 0 0 0 0 0 0 0 0 0 0 0 0 0 0 0 0 0 0
0 0 0 0 0 0 0 0 0 0 0 0 0 0 0 0 0 0 0 0 0 0 0 0 0 0 0 0 0 0 0 0 0 0 0 0 0 0
0 0 0 0 0 0 0 0 0 0 0 0 0 0 0 0 0 0 0 0 0 0 0 0 0 0 0 0 0 0 0 0 0 0 0 0 0 0
0 0 0 0 0 0 0 0 0 0 0 0 0 0 0 0 0 0 0 0 0 0 0 0 0 0 0 0 0 0 0 0 0 0 0 0 0 0
0 0 0 0 0 0 0 0 0 0 0 0 0 0 0 0 0 0 0 0 0 0 0 0 0 0 0 0 0 0 0 0 0 0 0 0 0 0
0 0 0 0 0 0 0 0 0 0 0 0 0 0 0 0 0 0 0 0 0 0 0 0 0 0 0 0 0 0 0 0 0 0 0 0 0 0
0 0 0 0 0 0 0 0 0 0 0 0 0 0 0 0 0 0 0 0 0 0 0 0 0 0 0 0 0 0 0 0 0 0 0 0 0 0
0 0 0 0 0 0 0 0 0 0 0 0 0 0 0 0 0 0 0 0 0 0 0 0 0 0 0 0 0 0 0 0 0 0 0 0 0 0
0 0 0 0 0 0 0 0 0 0 0 0 0 0 0 0 0 0 0 0 0 0 0 0 0 0 0 0 0 0 0 0 0 0 0 0 0 0
Wind_Speed
1 1 1 1 1 1 1 2 3 2 2 1 1 1 1 1 2 1 0 2 4 5 6 6 7 7 8 8 7 7 6 7 8 8 7 7 7 7
1 1 1 1 1 1 1 1 2 2 2 1 0 1 2 2 3 2 2 4 6 7 8 8 7 8 8 8 7 6 6 7 7 8 8 7 7 6
3 2 2 2 1 1 1 1 1 2 2 1 0 1 1 2 2 3 3 3 4 8 9 9 8 8 8 7 7 7 7 7 7 7 7 6 6 5
3 3 3 2 1 1 1 1 1 1 3 3 1 1 1 2 3 3 3 3 3 7 8 8 8 7 7 6 6 6 5 5 5 5 5 5 5 4
3 3 3 2 1 1 1 1 1 1 2 4 2 1 1 2 3 3 4 3 3 4 5 6 6 6 5 5 4 4 3 3 3 3 3 4 4 4
4 4 3 2 1 1 1 1 2 3 3 3 3 2 2 2 2 3 2 2 2 2 3 3 3 3 3 2 2 2 3 3 3 3 3 4 4 4
4 4 4 4 3 1 1 2 3 3 3 4 3 2 2 2 2 2 3 2 1 1 1 1 1 0 1 2 3 4 5 5 5 5 5 6 6 6
3 4 4 4 4 3 1 2 4 4 4 4 3 4 3 3 2 3 3 2 0 1 2 1 1 1 2 2 5 6 7 7 7 7 7 7 8 8
2 3 3 4 4 2 3 3 2 3 5 4 5 5 5 4 4 3 3 2 2 2 2 1 1 2 3 4 7 8 9 9 9 9 9 9 9 9
2 2 2 3 3 2 2 2 2 1 2 3 4 4 4 4 4 4 4 2 1 0 3 1 1 2 2 3 7 9 9 10 10 10 10 10 10 11
4 3 3 2 3 2 2 3 2 2 2 4 3 3 4 5 4 4 3 3 1 1 1 2 1 1 2 3 4 8 9 10 10 11 11 11 12 10
3 3 5 4 3 2 2 2 2 1 2 3 2 2 1 2 4 5 5 4 2 1 2 2 1 1 1 3 2 2 4 7 10 11 11 12 11 5
2 3 3 4 4 3 3 2 1 1 2 2 1 1 0 0 1 2 4 4 3 3 3 4 2 2 1 2 3 2 3 3 3 5 9 12 12 8
1 2 2 4 4 4 2 2 2 2 2 2 1 0 0 1 1 1 2 3 3 4 4 4 3 3 2 1 3 3 2 3 3 4 4 7 9 11
1 2 3 4 4 3 3 2 2 2 2 1 1 1 1 1 1 0 1 0 1 2 3 4 4 3 3 3 3 2 3 3 3 4 4 4 4 4
2 3 4 5 3 3 2 2 1 1 1 1 1 1 0 0 0 1 1 0 1 3 3 2 4 4 3 3 3 3 3 3 3 4 3 4 4 4
2 2 3 3 3 3 2 2 2 1 0 0 1 0 0 0 1 1 1 1 1 1 3 3 1 2 4 4 3 4 4 4 5 4 2 4 6 6
2 2 2 2 2 2 2 2 1 1 1 0 1 1 1 1 1 1 1 1 1 2 2 2 2 2 3 3 6 5 4 4 4 4 3 3 6 6
2 1 2 2 2 2 1 1 2 2 1 1 1 1 1 1 1 1 1 1 1 2 2 2 1 1 1 4 6 6 5 4 3 3 3 4 5 6
1 2 2 3 2 2 2 2 2 2 1 1 1 1 1 1 1 1 1 1 2 2 2 2 2 3 4 5 4 5 6 5 4 4 4 3 4 7
2 2 3 2 2 2 2 2 2 2 2 1 1 2 1 1 1 2 2 2 2 2 3 4 5 5 2 0 2 5 5 6 7 5 4 3 4 4
3 3 3 3 3 3 2 2 2 2 2 2 2 2 2 2 2 3 2 2 2 3 4 4 4 2 1 2 4 5 6 6 6 7 9 9 4 4
4 4 3 3 3 2 2 2 3 3 3 2 2 2 2 2 2 2 3 3 2 3 3 3 3 2 2 3 4 4 6 6 4 4 5 8 11 14
Wind_Direction
338 328 298 282 278 251 223 196 177 193 221 223 334 344 357 7 10 4 29 102 113 116 115 114 116 117 116 116 113 120 132 142 144 151 158 161 164 161
338 349 326 297 307 286 248 236 197 180 186 189 223 352 9 30 47 49 65 93 98 104 107 106 106 107 111 112 112 120 130 141 151 156 158 159 155 160
347 351 321 296 288 283 260 228 199 165 176 193 52 47 60 67 58 58 67 81 94 99 101 101 102 104 108 113 118 119 119 124 135 143 146 148 153 158
340 337 323 314 305 281 241 213 188 164 157 166 144 117 98 112 91 83 76 85 91 100 102 104 105 106 107 108 112 114 120 129 136 145 151 155 161 168
346 337 325 328 308 294 238 184 173 153 142 148 146 115 104 113 98 79 82 73 81 97 98 103 110 109 108 108 109 115 130 142 145 153 163 163 168 181
356 352 341 330 292 256 185 168 149 130 129 134 132 117 108 108 115 111 90 63 73 85 92 106 111 115 122 140 155 164 179 179 175 181 190 199 208 216
359 360 0 3 354 292 190 167 150 142 140 140 139 132 136 139 150 144 125 97 45 81 100 99 110 142 224 217 214 212 208 207 210 214 220 224 228 234
355 353 357 5 10 28 94 165 177 168 162 159 156 158 165 158 148 145 133 124 167 227 135 201 163 224 243 232 226 219 218 221 226 231 233 236 239 244
351 356 8 13 12 29 58 70 95 167 178 171 165 172 171 172 160 155 156 155 185 188 133 233 230 237 244 237 230 229 230 231 234 237 240 243 247 251
8 9 12 2 8 25 61 68 58 65 158 167 172 176 172 170 170 167 162 137 59 139 139 171 243 242 250 243 238 232 234 238 242 245 248 250 252 254
7 12 10 4 359 50 73 79 63 39 76 115 143 160 170 179 167 136 132 121 108 273 171 159 226 258 274 261 250 238 239 243 246 249 252 254 256 260
358 1 10 15 20 73 89 98 87 61 79 90 89 97 153 187 185 172 162 151 150 216 212 168 199 158 297 279 260 253 248 252 252 254 256 258 259 256
353 344 348 22 41 60 75 95 135 130 105 101 94 84 76 176 186 176 172 164 165 209 202 164 177 174 195 279 292 260 238 249 257 260 258 259 257 237
333 325 338 20 36 37 43 57 100 110 102 99 99 102 201 224 227 217 198 197 201 208 198 166 176 181 176 240 279 287 272 249 239 254 260 267 264 252
323 327 345 3 14 18 14 36 82 89 98 111 150 221 228 229 230 357 1 4 287 244 218 195 185 183 177 201 239 260 283 280 245 245 258 256 256 253
360 346 348 355 8 7 4 17 33 116 148 169 217 247 305 358 159 161 159 110 2 311 290 228 201 186 200 222 221 252 252 263 276 260 259 269 265 248
351 5 5 1 360 351 347 343 348 11 78 148 148 130 47 284 257 203 166 155 177 262 298 311 278 212 216 207 233 252 259 265 262 264 260 274 272 260
39 23 348 334 320 309 319 322 321 308 280 217 157 169 200 231 258 257 192 187 217 256 267 282 321 357 345 285 222 233 253 257 267 262 230 248 278 279
35 336 311 300 293 288 270 254 266 261 245 226 220 225 223 228 228 250 247 229 254 261 264 255 209 155 264 291 286 225 215 254 269 275 253 231 254 274
315 298 294 291 284 272 260 250 264 283 270 244 238 235 220 211 223 244 247 240 252 264 282 276 233 207 208 232 261 277 235 222 240 259 268 267 263 274
288 287 280 280 280 273 266 259 255 253 252 243 247 244 231 209 233 248 252 261 253 254 261 264 258 249 225 210 295 289 282 249 223 227 248 273 289 298
266 268 273 271 268 268 265 261 259 257 257 244 244 243 236 219 233 245 244 245 247 244 253 268 287 304 184 224 259 274 286 296 285 255 238 220 222 247
251 254 257 261 258 252 249 250 244 246 248 240 239 238 226 224 232 234 241 243 247 257 266 283 298 293 261 246 258 271 280 286 294 305 291 268 245 245